Location: Eschertshofen
(49.3064°N, 11.5756°E)
Time: 13:03:50
(UTC+00:00)

USA 238 DEB - Pass Details

Date: 18 September 2020
Orbit: 1006 x 1206 km, 63.4° (Epoch: 15 October)

Event Time Altitude Azimuth Distance (km) Brightness Sun altitude
Rises 19:32:19 0° 317° (NW) 3,941 8.0 -21.4°
Reaches altitude 10° 19:34:57 10° 315° (NW) 3,008 7.1 -21.8°
Maximum altitude 19:42:06 68° 234° (SW) 1,243 4.0 -22.8°
Enters shadow 19:45:39 33° 162° (SSE) 1,864 4.5 -23.3°
